Newton, KS

2:36 AM CST on December 08, 2019 (GMT -0600)
Newton City County

Weather History for KEWK - October, 2019

Change the Weather History Date:

Tuesday, October 29, 2019

  Actual Average Record
Temperature  
Mean Temperature 27 °F -  
Max Temperature 35 °F 58 °F 82 °F (2016)
Min Temperature 19 °F 40 °F 19 °F (2019)
Degree Days  
Heating Degree Days 38    
Moisture  
Dew Point 24 °F    
Average Humidity 84    
Maximum Humidity 100    
Minimum Humidity 70    
Precipitation  
Precipitation 0.00 in - - ()
Sea Level Pressure  
Sea Level Pressure 30.24 in    
Wind  
Wind Speed 8 mph (NNE)    
Max Wind Speed 20 mph    
Max Gust Speed 23 mph    
Visibility 8 miles    
Events Fog , Snow    
Averages and records for this station are not official NWS values.
T = Trace of Precipitation, MM = Missing Value Source: NWS Daily Summary

Daily Weather History Graph

Daily Weather History Graph

Search for Another Location

Airport or City:

Astronomy

Oct. 29, 2019 Rise Set
Actual Time 7:51 AM CDT 6:33 PM CDT
Civil Twilight 7:24 AM CDT 7:00 PM CDT
Nautical Twilight 6:53 AM CDT 7:31 PM CDT
Astronomical Twilight 6:22 AM CDT 8:02 PM CDT
Moon 9:25 AM CDT (10/29) 8:00 PM CDT (10/29)
Length of Visible Light 11h 36m
Length of Day
10h 41m
Waxing Crescent, 3% of the Moon is Illuminated
Oct 29
Waxing Crescent
Nov 4
First Quarter
Nov 12
Full
Nov 19
Last Quarter
Nov 26
New

Hourly Weather History & Observations

Time (CDT) Temp. Windchill Dew Point Humidity Pressure Visibility Wind Dir Wind Speed Gust Speed Precip Events Conditions
12:56 AM 25.0 °F 19.3 °F 21.9 °F 88% 30.23 in 10.0 mi NW 4.6 mph - N/A   Clear
1:56 AM 21.9 °F 17.2 °F 19.0 °F 89% 30.24 in 10.0 mi NNW 3.5 mph - N/A   Clear
2:56 AM 21.0 °F 14.6 °F 19.0 °F 92% 30.26 in 10.0 mi NW 4.6 mph - N/A   Clear
3:56 AM 19.0 °F 12.3 °F 17.1 °F 92% 30.25 in 10.0 mi NNW 4.6 mph - N/A   Clear
4:56 AM 19.0 °F 10.0 °F 17.1 °F 92% 30.23 in 10.0 mi North 6.9 mph - N/A   Clear
5:52 AM 19.4 °F 12.8 °F 17.6 °F 93% 30.21 in 8.0 mi NNE 4.6 mph - N/A   Scattered Clouds
6:07 AM 21.2 °F 14.9 °F 19.4 °F 93% 30.21 in 1.8 mi NE 4.6 mph - N/A   Mostly Cloudy
6:18 AM 21.2 °F 14.9 °F 21.2 °F 100% 30.22 in 0.8 mi NNE 4.6 mph - 0.00 in Snow Light Snow
6:30 AM 23.0 °F 15.8 °F 21.2 °F 93% 30.21 in 0.5 mi NNE 5.8 mph - 0.00 in Fog , Snow Light Snow
6:41 AM 24.8 °F 17.9 °F 23.0 °F 93% 30.22 in 1.0 mi NNE 5.8 mph - 0.00 in Snow Light Snow
6:48 AM 24.8 °F 19.1 °F 23.0 °F 93% 30.22 in 2.0 mi NNE 4.6 mph - 0.00 in Snow Light Snow
6:56 AM 24.1 °F 16.0 °F 24.1 °F 100% 30.27 in 5.0 mi NNE 6.9 mph - 0.00 in   Overcast
7:56 AM 25.0 °F 16.3 °F 24.1 °F 96% 30.28 in 4.0 mi North 8.1 mph - 0.00 in Snow Light Snow
8:13 AM 24.8 °F 14.6 °F 24.8 °F 100% 30.24 in 1.8 mi NNE 10.4 mph - 0.00 in Snow Light Snow
8:41 AM 24.8 °F 14.0 °F 24.8 °F 100% 30.24 in 2.5 mi NNE 11.5 mph - 0.00 in   Overcast
8:48 AM 24.8 °F 14.6 °F 24.8 °F 100% 30.24 in 5.0 mi NNE 10.4 mph - 0.00 in   Overcast
8:56 AM 25.0 °F 14.2 °F 24.1 °F 96% 30.29 in 7.0 mi NNE 11.5 mph - 0.00 in   Overcast
9:13 AM 26.6 °F 16.8 °F 24.8 °F 93% 30.25 in 10.0 mi NNE 10.4 mph - N/A   Overcast
9:39 AM 26.6 °F 15.2 °F 26.6 °F 100% 30.25 in 10.0 mi NNE 13.8 mph - N/A   Overcast
9:56 AM 27.0 °F 17.3 °F 26.1 °F 96% 30.30 in 10.0 mi NE 10.4 mph - N/A   Overcast
10:56 AM 28.9 °F 19.8 °F 25.0 °F 85% 30.28 in 10.0 mi NE 10.4 mph - N/A   Overcast
11:52 AM 30.2 °F 22.6 °F 26.6 °F 86% 30.25 in 10.0 mi NE 8.1 mph - N/A   Overcast
11:56 AM 30.9 °F 24.3 °F 26.1 °F 82% 30.31 in 10.0 mi ENE 6.9 mph - N/A   Overcast
12:56 PM 34.0 °F 28.8 °F 26.1 °F 73% 30.28 in 10.0 mi NNE 5.8 mph - N/A   Overcast
1:10 PM 33.8 °F 28.6 °F 24.8 °F 70% 30.23 in 10.0 mi Variable 5.8 mph - N/A   Overcast
1:26 PM 33.8 °F 25.8 °F 24.8 °F 70% 30.22 in 10.0 mi NNE 10.4 mph - N/A   Overcast
1:56 PM 34.0 °F 28.8 °F 26.1 °F 73% 30.26 in 10.0 mi Variable 5.8 mph - N/A   Overcast
2:56 PM 34.0 °F 26.6 °F 26.1 °F 73% 30.24 in 10.0 mi NE 9.2 mph - N/A   Overcast
3:52 PM 35.6 °F 28.0 °F 26.6 °F 70% 30.20 in 10.0 mi NE 10.4 mph - N/A   Overcast
3:56 PM 34.0 °F 25.5 °F 26.1 °F 73% 30.24 in 10.0 mi NNE 11.5 mph - N/A   Overcast
4:08 PM 35.6 °F 27.5 °F 26.6 °F 70% 30.20 in 10.0 mi NNE 11.5 mph - N/A   Overcast
4:56 PM 34.0 °F 25.5 °F 27.0 °F 75% 30.24 in 10.0 mi NNE 11.5 mph - N/A   Overcast
5:56 PM 35.1 °F 26.4 °F 27.0 °F 72% 30.23 in 10.0 mi NNE 12.7 mph - N/A   Overcast
6:14 PM 33.8 °F 24.8 °F 26.6 °F 75% 30.20 in 10.0 mi NNE 12.7 mph - N/A   Overcast
6:56 PM 34.0 °F 26.0 °F 27.0 °F 75% 30.23 in 10.0 mi NNE 10.4 mph - N/A   Overcast
7:56 PM 35.1 °F 26.9 °F 26.1 °F 70% 30.24 in 10.0 mi NE 11.5 mph - N/A   Overcast
8:56 PM 34.0 °F 25.0 °F 26.1 °F 73% 30.25 in 10.0 mi NE 12.7 mph - N/A   Overcast
9:56 PM 34.0 °F 23.8 °F 26.1 °F 73% 30.27 in 10.0 mi NNE 16.1 mph 20.7 mph N/A   Overcast
10:14 PM 33.8 °F 23.9 °F 26.6 °F 75% 30.24 in 10.0 mi NE 15.0 mph 21.9 mph N/A   Overcast
10:56 PM 33.1 °F 21.5 °F 26.1 °F 75% 30.28 in 10.0 mi NE 19.6 mph 23.0 mph N/A   Overcast
11:56 PM 33.1 °F 24.4 °F 26.1 °F 75% 30.26 in 10.0 mi NNE 11.5 mph 23.0 mph N/A   Overcast